Location: Faicchio
(41.2833°N, 14.4833°E)
Time: 06:52:44
(UTC+00:00)

Cosmos 1943 Rocket - Pass Details

Date: 15 June 2025
Orbit: 810 x 843 km, 71.0° (Epoch: 16 July)

Event Time Altitude Azimuth Distance (km) Brightness Sun altitude
Exits shadow 00:17:32 37° 142° (SE) 1,238 2.8 -23.1°
Maximum altitude 00:18:51 44° 107° (ESE) 1,115 2.8 -23.0°
Drops below altitude 10° 00:24:02 10° 36° (NE) 2,408 5.6 -22.7°
Sets 00:26:33 0° 31° (NNE) 3,348 6.7 -22.5°
